Turku, Finland

12:52 PM EEST on June 20, 2018 (GMT +0300)
Turku

Weather History for EFTU - September, 2017

Change the Weather History Date:

Thursday, September 14, 2017

  Actual Average Record
Temperature  
Mean Temperature 54 °F -  
Max Temperature 59 °F 52 °F 69 °F (1998)
Min Temperature 50 °F 39 °F 33 °F (2007)
Degree Days  
Heating Degree Days 10    
Growing Degree Days 4 (Base 50)    
Moisture  
Dew Point 51 °F    
Average Humidity 88    
Maximum Humidity 100    
Minimum Humidity 67    
Precipitation  
Precipitation 0.00 in 0.09 in - ()
Sea Level Pressure  
Sea Level Pressure 29.14 in    
Wind  
Wind Speed 7 mph ()    
Max Wind Speed 13 mph    
Max Gust Speed -    
Visibility 6.2 miles    
Events Rain    
Averages and records for this station are not official NWS values.
T = Trace of Precipitation, MM = Missing Value Source: Averaged Metar Reports

Daily Weather History Graph

Daily Weather History Graph

Search for Another Location

Airport or City:

Astronomy

Sep. 14, 2017 Rise Set
Actual Time 6:55 AM EEST 7:55 PM EEST
Civil Twilight 6:12 AM EEST 8:38 PM EEST
Nautical Twilight 5:19 AM EEST 9:31 PM EEST
Astronomical Twilight 4:17 AM EEST 10:32 PM EEST
Moon No Moon Rise 5:08 PM EEST (9/14)
Length of Visible Light 14h 25m
Length of Day
12h 59m
Last Quarter, 38% of the Moon is Illuminated
Sep 14
Last Quarter
Sep 20
New
Sep 28
First Quarter
Oct 5
Full
Oct 12
Last Quarter

Hourly Weather History & Observations

Time (EEST) Temp. Dew Point Humidity Pressure Visibility Wind Dir Wind Speed Gust Speed Precip Events Conditions
12:20 AM 51.8 °F 50.0 °F 94% 29.27 in 6.2 mi ESE 5.8 mph - N/A   Partly Cloudy
12:50 AM 51.8 °F 50.0 °F 94% 29.24 in 6.2 mi ESE 5.8 mph - N/A   Mostly Cloudy
1:20 AM 51.8 °F 50.0 °F 94% 29.24 in 6.2 mi ESE 5.8 mph - N/A   Overcast
1:50 AM 51.8 °F 50.0 °F 94% 29.24 in 6.2 mi ESE 5.8 mph - N/A   Partly Cloudy
2:20 AM 51.8 °F 50.0 °F 94% 29.21 in 6.2 mi ESE 5.8 mph - N/A   Mostly Cloudy
2:50 AM 51.8 °F 50.0 °F 94% 29.21 in 6.2 mi ESE 6.9 mph - N/A   Mostly Cloudy
3:20 AM 51.8 °F 50.0 °F 94% 29.18 in 6.2 mi East 6.9 mph - N/A   Scattered Clouds
3:50 AM 50.0 °F 50.0 °F 100% 29.18 in 6.2 mi East 5.8 mph - N/A   Scattered Clouds
4:20 AM 50.0 °F 50.0 °F 100% 29.18 in 6.2 mi East 6.9 mph - N/A   Partly Cloudy
4:50 AM 50.0 °F 50.0 °F 100% 29.15 in 6.2 mi East 6.9 mph - N/A   Mostly Cloudy
5:20 AM 51.8 °F 51.8 °F 100% 29.15 in 6.2 mi East 6.9 mph - N/A   Overcast
5:50 AM 51.8 °F 51.8 °F 100% 29.15 in 6.2 mi East 8.1 mph - N/A   Overcast
6:20 AM 53.6 °F 51.8 °F 94% 29.12 in 6.2 mi East 8.1 mph - N/A   Overcast
6:50 AM 53.6 °F 51.8 °F 94% 29.12 in 6.2 mi East 8.1 mph - N/A   Overcast
7:20 AM 51.8 °F 51.8 °F 100% 29.12 in 6.2 mi ENE 8.1 mph - N/A   Overcast
7:50 AM 53.6 °F 51.8 °F 94% 29.12 in 6.2 mi East 8.1 mph - N/A   Overcast
8:20 AM 53.6 °F 51.8 °F 94% 29.09 in 6.2 mi East 10.4 mph - N/A   Overcast
9:20 AM 53.6 °F 51.8 °F 94% 29.09 in 6.2 mi East 11.5 mph - N/A Rain Light Rain
9:50 AM 55.4 °F 51.8 °F 88% 29.09 in 6.2 mi East 10.4 mph - N/A Rain Light Rain
10:20 AM 55.4 °F 50.0 °F 82% 29.09 in 6.2 mi East 10.4 mph - N/A   Mostly Cloudy
10:50 AM 57.2 °F 50.0 °F 77% 29.09 in 6.2 mi ENE 11.5 mph - N/A   Mostly Cloudy
11:20 AM 55.4 °F 48.2 °F 77% 29.09 in 6.2 mi ENE 12.7 mph - N/A   Mostly Cloudy
11:50 AM 57.2 °F 50.0 °F 77% 29.09 in 6.2 mi East 11.5 mph - N/A   Mostly Cloudy
12:20 PM 57.2 °F 48.2 °F 72% 29.09 in 6.2 mi East 12.7 mph - N/A   Overcast
12:50 PM 57.2 °F 48.2 °F 72% 29.09 in 6.2 mi East 11.5 mph - N/A   Mostly Cloudy
1:20 PM 57.2 °F 48.2 °F 72% 29.09 in 6.2 mi East 12.7 mph - N/A   Mostly Cloudy
1:50 PM 59.0 °F 48.2 °F 67% 29.09 in 6.2 mi East 11.5 mph - N/A   Overcast
2:20 PM 57.2 °F 50.0 °F 77% 29.09 in 6.2 mi East 11.5 mph - N/A Rain Light Rain
2:50 PM 59.0 °F 48.2 °F 67% 29.09 in 6.2 mi ENE 11.5 mph - N/A   Mostly Cloudy
3:20 PM 55.4 °F 51.8 °F 88% 29.12 in 6.2 mi NE 5.8 mph - N/A Rain Light Rain
3:50 PM 57.2 °F 50.0 °F 77% 29.12 in 6.2 mi ENE 10.4 mph - N/A   Scattered Clouds
4:20 PM 59.0 °F 50.0 °F 72% 29.12 in 6.2 mi ENE 9.2 mph - N/A   Mostly Cloudy
4:50 PM 57.2 °F 50.0 °F 77% 29.12 in 6.2 mi NE 6.9 mph - N/A   Overcast
5:20 PM 55.4 °F 51.8 °F 88% 29.12 in 6.2 mi ENE 9.2 mph - N/A Rain Light Rain
5:50 PM 55.4 °F 51.8 °F 88% 29.12 in 6.2 mi NNE 4.6 mph - N/A Rain Light Rain
6:20 PM 55.4 °F 51.8 °F 88% 29.12 in 6.2 mi NNE 3.5 mph - N/A   Mostly Cloudy
6:50 PM 55.4 °F 51.8 °F 88% 29.12 in 6.2 mi North 3.5 mph - N/A   Overcast
7:20 PM 55.4 °F 51.8 °F 88% 29.12 in 6.2 mi NNE 4.6 mph - N/A   Mostly Cloudy
7:50 PM 55.4 °F 51.8 °F 88% 29.12 in 6.2 mi NNE 4.6 mph - N/A   Mostly Cloudy
8:20 PM 53.6 °F 51.8 °F 94% 29.12 in 6.2 mi North 3.5 mph - N/A   Overcast
8:50 PM 53.6 °F 51.8 °F 94% 29.15 in 6.2 mi North 3.5 mph - N/A   Overcast
9:20 PM 53.6 °F 51.8 °F 94% 29.15 in 6.2 mi NNW 3.5 mph - N/A   Mostly Cloudy
9:50 PM 53.6 °F 51.8 °F 94% 29.15 in 6.2 mi NNW 3.5 mph - N/A   Mostly Cloudy
10:20 PM 53.6 °F 50.0 °F 88% 29.15 in 6.2 mi North 3.5 mph - N/A   Overcast
10:50 PM 51.8 °F 50.0 °F 94% 29.15 in 6.2 mi North 3.5 mph - N/A   Mostly Cloudy
11:20 PM 51.8 °F 50.0 °F 94% 29.15 in 6.2 mi NW 3.5 mph - N/A   Mostly Cloudy
11:50 PM 51.8 °F 50.0 °F 94% 29.18 in 6.2 mi NNW 3.5 mph - N/A   Overcast